Weather in Fuzhou

China     26°00′49″N   119°19′05″E
temp.,
°C
wind,
m/s
gust,
m/s
humid.,
%
clouds,
%
prec.,
mm/h
press.,
hPa
HPBL,
m
25 january, tue
tue2523:00+12ne1387100 0.1 1021411
02:00+12ne1388100 0.3 1020407
05:00+11ne1287100 0.1 1020239
08:00+12ne128586 0.1 1022288
11:00+13ene127699 0.0 1022710
14:00+14e227293 0.0 1019796
17:00+13e2281100 0.0 1020322
20:00+12ene1285100 0.0 1021300
26 january, wed
wed2623:00+11ne1285100 0.0 1022400
02:00+11nne1286100 0.0 1022301
05:00+11ne1187100 0.0 1021190
08:00+11ene118479 0.0 1023279
11:00+14ese127493 0.0 1023707
14:00+15e227397 0.0 1020708
17:00+13e128091 0.0 1020304
20:00+12ene128592 0.0 1022142
27 january, thu
thu2723:00+12ne118668 0.0 1022111
02:00+12nne118859 0.0 102149
05:00+12nnw118962 0.0 102041
08:00+13ne018642 0.0 1021133
11:00+16ene1274100 0.0 1021566
14:00+16ene127799 0.0 1018486
17:00+15e128391 0.0 1018216
20:00+14e128992 0.0 1020169
28 january, fri
fri2823:00+13e129098 0.0 1021227
02:00+13e128998 0.0 1021265
05:00+12e1287100 0.0 1020326
08:00+11e2385100 0.0 1022478
11:00+12ene237895 0.0 1022672
14:00+12ene2378100 0.1 1019733
17:00+11e2380100 0.0 1020596
20:00+10ene1382100 0.1 1022618
29 january, sat
sat2923:00+10ene1384100 0.1 1021646
02:00+9ne1284100 0.1 1020535
05:00+9ene128397 0.0 1018479
08:00+9ene1382100 0.0 1020525
11:00+10ene1279100 0.0 1020783
14:00+10ene2278100 0.1 1017778
17:00+10ne1279100 0.0 1017536
20:00+9e1285100 0.3 1020227